Orbital Elements at Epoch 2459000.5 (2020-May-31.0) TDB
Reference: JPL 10 (heliocentric ecliptic J2000)
Element | Value | Uncertainty (1-sigma) | Units |
e | .1162768910408332 | 6.4147e-08 | |
a | 3.166303480368242 | 3.9902e-08 | au |
q | 2.798135555579253 | 1.9801e-07 | au |
i | 1.695998303189043 | 7.447e-06 | deg |
node | 139.7908828031521 | 0.000274 | deg |
peri | 353.0041216194559 | 0.00027667 | deg |
M | 150.3229400507892 | 3.7426e-05 | deg |
tp | 2458141.189744859133 (2018-Jan-22.68974486) | 0.00021273 | TDB |
period | 2057.914059864663 5.63 | 3.8901e-05 1.065e-07 | d yr |
n | .1749344187986524 | 3.3068e-09 | deg/d |
Q | 3.534471405157231 | 4.4542e-08 | au |
|
| | Orbit Determination Parameters
Additional Information
|